,,,PA_Meas_PMT16A,,PR_Meas_QMR101_102,,RH_Meas_QMH101,,SR_Meas_QMS101,,TA_Meas_QMH101,,GenWind,,GenWind,
date,time,status,PA,status,PR,status,RH,status,SR,status,TA,status,DirAvg,status,SpdAvg,
2012-01-27, 00:00:04,VALID,1007.58,VALID,0,VALID,104,VALID,0,VALID,24.0661,VALID,42,VALID,0,
2012-01-27, 00:01:04,VALID,1007.55,VALID,0,VALID,104,VALID,0,VALID,24.0448,VALID,42,VALID,0,
2012-01-27, 00:02:04,VALID,1007.55,VALID,0,VALID,104,VALID,0,VALID,24.0253,VALID,42,VALID,0,
2012-01-27, 00:03:04,VALID,1007.54,VALID,0,VALID,104,VALID,0,VALID,24.0466,VALID,42,VALID,0.201172,
2012-01-27, 00:04:04,VALID,1007.55,VALID,0,VALID,104,VALID,0,VALID,24.0253,VALID,42,VALID,0.194922,
2012-01-27, 00:05:04,VALID,1007.53,VALID,0,VALID,104,VALID,0,VALID,24.0253,VALID,42,VALID,0.0804688,
2012-01-27, 00:06:04,VALID,1007.52,VALID,0,VALID,104,VALID,0,VALID,24.0253,VALID,42,VALID,0.125,
2012-01-27, 00:07:04,VALID,1007.5,VALID,0,VALID,104,VALID,0,VALID,24.0253,VALID,42,VALID,0.0121094,
2012-01-27, 00:08:04,VALID,1007.49,VALID,0,VALID,104,VALID,0,VALID,24.0058,VALID,42,VALID,0,
2012-01-27, 00:09:04,VALID,1007.44,VALID,0,VALID,104,VALID,0,VALID,24.0058,VALID,42,VALID,0.0015625,
2012-01-27, 00:10:04,VALID,1007.4,VALID,0,VALID,104,VALID,0,VALID,24.0058,VALID,42,VALID,0.0523437,
2012-01-27, 00:11:04,VALID,1007.42,VALID,0,VALID,104,VALID,0,VALID,23.9863,VALID,42,VALID,0.0667969,
2012-01-27, 00:12:04,VALID,1007.39,VALID,0,VALID,104,VALID,0,VALID,23.9668,VALID,42,VALID,0.0777344,
2012-01-27, 00:13:04,VALID,1007.37,VALID,0,VALID,104,VALID,0,VALID,23.9668,VALID,42,VALID,0,
2012-01-27, 00:14:04,VALID,1007.38,VALID,0,VALID,104,VALID,0,VALID,23.9668,VALID,42,VALID,0,
2012-01-27, 00:15:04,VALID,1007.38,VALID,0,VALID,104,VALID,0,VALID,23.9473,VALID,42,VALID,0,
2012-01-27, 00:16:04,VALID,1007.38,VALID,0,VALID,104,VALID,0,VALID,23.9473,VALID,42,VALID,0,
2012-01-27, 00:17:04,VALID,1007.39,VALID,0,VALID,104,VALID,0,VALID,23.9686,VALID,42,VALID,0,
2012-01-27, 00:18:04,VALID,1007.38,VALID,0,VALID,104,VALID,0,VALID,23.9278,VALID,42,VALID,0,
2012-01-27, 00:19:04,VALID,1007.39,VALID,0,VALID,104,VALID,0,VALID,23.9278,VALID,42,VALID,0,
2012-01-27, 00:20:04,VALID,1007.36,VALID,0,VALID,104,VALID,0,VALID,23.8889,VALID,42,VALID,0,
2012-01-27, 00:21:04,VALID,1007.36,VALID,0,VALID,104,VALID,0,VALID,23.8907,VALID,42,VALID,0,
2012-01-27, 00:22:04,VALID,1007.36,VALID,0,VALID,104,VALID,0,VALID,23.8499,VALID,42,VALID,0,
2012-01-27, 00:23:04,VALID,1007.35,VALID,0,VALID,104,VALID,0,VALID,23.8517,VALID,42,VALID,0,
2012-01-27, 00:24:04,VALID,1007.35,VALID,0,VALID,104,VALID,0,VALID,23.8304,VALID,42,VALID,0,
2012-01-27, 00:25:04,VALID,1007.33,VALID,0,VALID,104,VALID,0,VALID,23.8109,VALID,42,VALID,0,
2012-01-27, 00:26:04,VALID,1007.3,VALID,0,VALID,104,VALID,0,VALID,23.8109,VALID,42,VALID,0,
2012-01-27, 00:27:04,VALID,1007.33,VALID,0,VALID,104,VALID,0,VALID,23.8127,VALID,42,VALID,0,
2012-01-27, 00:28:04,VALID,1007.32,VALID,0,VALID,104,VALID,0,VALID,23.8109,VALID,42,VALID,0,
2012-01-27, 00:29:04,VALID,1007.31,VALID,0,VALID,104,VALID,0,VALID,23.8517,VALID,14,VALID,0.271094,
2012-01-27, 00:30:04,VALID,1007.32,VALID,0,VALID,104,VALID,0,VALID,23.8304,VALID,312,VALID,0.357422,
2012-01-27, 00:31:04,VALID,1007.28,VALID,0,VALID,104,VALID,0,VALID,23.8499,VALID,312,VALID,0.503125,
2012-01-27, 00:32:04,VALID,1007.27,VALID,0,VALID,104,VALID,0,VALID,23.8499,VALID,314,VALID,0.387109,
2012-01-27, 00:33:04,VALID,1007.27,VALID,0,VALID,104,VALID,0,VALID,23.8694,VALID,314,VALID,0.169531,
2012-01-27, 00:34:04,VALID,1007.27,VALID,0,VALID,104,VALID,0,VALID,23.9102,VALID,314,VALID,0.328125,
2012-01-27, 00:35:04,VALID,1007.29,VALID,0,VALID,104,VALID,0,VALID,23.8694,VALID,314,VALID,0.216406,
2012-01-27, 00:36:04,VALID,1007.26,VALID,0,VALID,104,VALID,0,VALID,23.9102,VALID,314,VALID,0.2,
2012-01-27, 00:37:04,VALID,1007.23,VALID,0,VALID,104,VALID,0,VALID,23.8907,VALID,314,VALID,0.184766,
2012-01-27, 00:38:04,VALID,1007.23,VALID,0,VALID,104,VALID,0,VALID,23.8499,VALID,314,VALID,0.247656,
2012-01-27, 00:39:04,VALID,1007.23,VALID,0,VALID,104,VALID,0,VALID,23.8499,VALID,314,VALID,0.176953,
2012-01-27, 00:40:04,VALID,1007.21,VALID,0,VALID,104,VALID,0,VALID,23.8322,VALID,314,VALID,0.0917969,
2012-01-27, 00:41:04,VALID,1007.19,VALID,0,VALID,104,VALID,0,VALID,23.7914,VALID,314,VALID,0.0886719,
2012-01-27, 00:42:04,VALID,1007.15,VALID,0,VALID,104,VALID,0,VALID,23.8127,VALID,314,VALID,0.096875,
2012-01-27, 00:43:04,VALID,1007.16,VALID,0,VALID,104,VALID,0,VALID,23.772,VALID,314,VALID,0.577344,
2012-01-27, 00:44:04,VALID,1007.14,VALID,0,VALID,104,VALID,0,VALID,23.7914,VALID,307,VALID,0.596875,
2012-01-27, 00:45:04,VALID,1007.11,VALID,0,VALID,104,VALID,0,VALID,23.7914,VALID,299,VALID,0.669531,
2012-01-27, 00:46:04,VALID,1007.12,VALID,0,VALID,104,VALID,0,VALID,23.7914,VALID,299,VALID,0.319922,
2012-01-27, 00:47:04,VALID,1007.09,VALID,0,VALID,104,VALID,0,VALID,23.7914,VALID,299,VALID,0.00820312,
2012-01-27, 00:48:04,VALID,1007.09,VALID,0,VALID,104,VALID,0,VALID,23.7914,VALID,299,VALID,0.395312,
2012-01-27, 00:49:04,VALID,1007.09,VALID,0,VALID,104,VALID,0,VALID,23.8109,VALID,258,VALID,0.593359,
2012-01-27, 00:50:04,VALID,1007.1,VALID,0,VALID,104,VALID,0,VALID,23.8109,VALID,262,VALID,0.0367187,
2012-01-27, 00:51:04,VALID,1007.12,VALID,0,VALID,104,VALID,0,VALID,23.7914,VALID,308,VALID,0.610156,
2012-01-27, 00:52:04,VALID,1007.08,VALID,0,VALID,104,VALID,0,VALID,23.8322,VALID,308,VALID,0.163281,
2012-01-27, 00:53:04,VALID,1007.09,VALID,0,VALID,104,VALID,0,VALID,23.8127,VALID,288,VALID,1.06797,
2012-01-27, 00:54:04,VALID,1007.08,VALID,0,VALID,104,VALID,0,VALID,23.8109,VALID,294,VALID,0.498047,
2012-01-27, 00:55:04,VALID,1007.06,VALID,0,VALID,104,VALID,0,VALID,23.8304,VALID,253,VALID,0.623438,
2012-01-27, 00:56:04,VALID,1007.03,VALID,0,VALID,104,VALID,0,VALID,23.8304,VALID,306,VALID,0.470703,
2012-01-27, 00:57:04,VALID,1007.06,VALID,0,VALID,104,VALID,0,VALID,23.8499,VALID,306,VALID,0.179688,
2012-01-27, 00:58:04,VALID,1007.03,VALID,0,VALID,104,VALID,0,VALID,23.8499,VALID,306,VALID,0.205078,
2012-01-27, 00:59:04,VALID,1006.99,VALID,0,VALID,104,VALID,0,VALID,23.8499,VALID,308,VALID,0.287891,
2012-01-27, 01:00:04,VALID,1006.96,VALID,0,VALID,104,VALID,0,VALID,23.8499,VALID,326,VALID,0.624219,
2012-01-27, 01:01:04,VALID,1006.96,VALID,0,VALID,104,VALID,0,VALID,23.8304,VALID,343,VALID,0.409375,
2012-01-27, 01:02:04,VALID,1006.91,VALID,0,VALID,104,VALID,0,VALID,23.8304,VALID,343,VALID,0.458984,
2012-01-27, 01:03:04,VALID,1006.88,VALID,0,VALID,104,VALID,0,VALID,23.8304,VALID,343,VALID,0.364844,
2012-01-27, 01:04:04,VALID,1006.86,VALID,0,VALID,104,VALID,0,VALID,23.8109,VALID,343,VALID,0.0511719,
2012-01-27, 01:05:04,VALID,1006.82,VALID,0,VALID,104,VALID,0,VALID,23.8304,VALID,343,VALID,0.300391,
2012-01-27, 01:06:04,VALID,1006.82,VALID,0,VALID,104,VALID,0,VALID,23.7914,VALID,343,VALID,0.576172,
2012-01-27, 01:07:04,VALID,1006.8,VALID,0,VALID,104,VALID,0,VALID,23.7914,VALID,343,VALID,0.353906,
2012-01-27, 01:08:04,VALID,1006.78,VALID,0,VALID,104,VALID,0.112112,VALID,23.7896,VALID,348,VALID,0.355859,
2012-01-27, 01:09:04,VALID,1006.75,VALID,0,VALID,104,VALID,0.112112,VALID,23.7896,VALID,350,VALID,0.561719,
2012-01-27, 01:10:04,VALID,1006.76,VALID,0,VALID,104,VALID,0.112112,VALID,23.7896,VALID,353,VALID,0.476172,
2012-01-27, 01:11:04,VALID,1006.74,VALID,0,VALID,104,VALID,0,VALID,23.7701,VALID,353,VALID,0.226563,
2012-01-27, 01:12:04,VALID,1006.72,VALID,0,VALID,104,VALID,0.112112,VALID,23.7896,VALID,351,VALID,0.0414063,
2012-01-27, 01:13:04,VALID,1006.73,VALID,0,VALID,104,VALID,0.112112,VALID,23.8109,VALID,332,VALID,0.498437,
2012-01-27, 01:14:04,VALID,1006.74,VALID,0,VALID,104,VALID,0.112112,VALID,23.7896,VALID,343,VALID,0.664063,
2012-01-27, 01:15:04,VALID,1006.74,VALID,0,VALID,104,VALID,0.112112,VALID,23.8304,VALID,343,VALID,0.218359,
2012-01-27, 01:16:04,VALID,1006.75,VALID,0,VALID,104,VALID,0.112112,VALID,23.7896,VALID,343,VALID,0.338672,
2012-01-27, 01:17:04,VALID,1006.75,VALID,0,VALID,104,VALID,0.112112,VALID,23.8091,VALID,343,VALID,0.259766,
2012-01-27, 01:18:04,VALID,1006.76,VALID,0,VALID,104,VALID,0.112112,VALID,23.8304,VALID,343,VALID,0.352734,
2012-01-27, 01:19:04,VALID,1006.75,VALID,0,VALID,104,VALID,0.112112,VALID,23.7896,VALID,343,VALID,0.35,
2012-01-27, 01:20:04,VALID,1006.74,VALID,0,VALID,104,VALID,0.112112,VALID,23.8091,VALID,343,VALID,0.297266,
2012-01-27, 01:21:04,VALID,1006.77,VALID,0,VALID,104,VALID,0,VALID,23.8091,VALID,343,VALID,0.445313,
2012-01-27, 01:22:04,VALID,1006.76,VALID,0,VALID,104,VALID,0,VALID,23.8499,VALID,343,VALID,0.285547,
2012-01-27, 01:23:04,VALID,1006.76,VALID,0,VALID,104,VALID,0,VALID,23.8499,VALID,343,VALID,0.0121094,
2012-01-27, 01:24:04,VALID,1006.73,VALID,0,VALID,104,VALID,0,VALID,23.8499,VALID,343,VALID,0.245703,
2012-01-27, 01:25:04,VALID,1006.71,VALID,0,VALID,104,VALID,0.112112,VALID,23.8694,VALID,343,VALID,0.156641,
2012-01-27, 01:26:04,VALID,1006.68,VALID,0,VALID,104,VALID,0.112112,VALID,23.8499,VALID,343,VALID,0.353906,
2012-01-27, 01:27:04,VALID,1006.64,VALID,0,VALID,104,VALID,0.112112,VALID,23.8286,VALID,343,VALID,0.196484,
2012-01-27, 01:28:04,VALID,1006.63,VALID,0,VALID,104,VALID,0.112112,VALID,23.8286,VALID,343,VALID,0.180859,
2012-01-27, 01:29:04,VALID,1006.61,VALID,0,VALID,104,VALID,0.112112,VALID,23.8286,VALID,343,VALID,0,
2012-01-27, 01:30:04,VALID,1006.61,VALID,0,VALID,104,VALID,0,VALID,23.8286,VALID,343,VALID,0.178906,
2012-01-27, 01:31:04,VALID,1006.6,VALID,0,VALID,104,VALID,0,VALID,23.8304,VALID,343,VALID,0.420312,
2012-01-27, 01:32:04,VALID,1006.58,VALID,0,VALID,104,VALID,0,VALID,23.8091,VALID,343,VALID,0.148438,
2012-01-27, 01:33:04,VALID,1006.53,VALID,0,VALID,104,VALID,0.112112,VALID,23.8091,VALID,343,VALID,0.266406,
2012-01-27, 01:34:04,VALID,1006.49,VALID,0,VALID,104,VALID,0.112112,VALID,23.8286,VALID,343,VALID,0.196875,
2012-01-27, 01:35:04,VALID,1006.49,VALID,0,VALID,104,VALID,0.112112,VALID,23.8304,VALID,343,VALID,0.314063,
2012-01-27, 01:36:04,VALID,1006.46,VALID,0,VALID,104,VALID,0.112112,VALID,23.8091,VALID,343,VALID,0.300781,
2012-01-27, 01:37:04,VALID,1006.44,VALID,0,VALID,104,VALID,0,VALID,23.7896,VALID,343,VALID,0.230469,
2012-01-27, 01:38:04,VALID,1006.39,VALID,0,VALID,104,VALID,0,VALID,23.7914,VALID,343,VALID,0,
2012-01-27, 01:39:04,VALID,1006.35,VALID,0,VALID,104,VALID,0,VALID,23.7914,VALID,343,VALID,0,
2012-01-27, 01:40:04,VALID,1006.32,VALID,0,VALID,104,VALID,0,VALID,23.7932,VALID,343,VALID,0.284375,
2012-01-27, 01:41:04,VALID,1006.3,VALID,0,VALID,104,VALID,0,VALID,23.7738,VALID,343,VALID,0.261328,
2012-01-27, 01:42:04,VALID,1006.28,VALID,0,VALID,104,VALID,0,VALID,23.7525,VALID,342,VALID,0.507813,
2012-01-27, 01:43:04,VALID,1006.3,VALID,0,VALID,104,VALID,0,VALID,23.7738,VALID,342,VALID,0.237891,
2012-01-27, 01:44:04,VALID,1006.27,VALID,0,VALID,104,VALID,0,VALID,23.7543,VALID,342,VALID,0,
2012-01-27, 01:45:04,VALID,1006.27,VALID,0,VALID,104,VALID,0,VALID,23.7543,VALID,325,VALID,0.617969,
2012-01-27, 01:46:04,VALID,1006.23,VALID,0,VALID,104,VALID,0,VALID,23.7543,VALID,313,VALID,0.307813,
2012-01-27, 01:47:04,VALID,1006.21,VALID,0,VALID,104,VALID,0,VALID,23.7543,VALID,313,VALID,0.0941406,
2012-01-27, 01:48:04,VALID,1006.18,VALID,0,VALID,104,VALID,0,VALID,23.7543,VALID,312,VALID,0.153125,
2012-01-27, 01:49:04,VALID,1006.17,VALID,0,VALID,104,VALID,0,VALID,23.7543,VALID,312,VALID,0.0605469,
2012-01-27, 01:50:04,VALID,1006.16,VALID,0,VALID,104,VALID,0,VALID,23.733,VALID,313,VALID,0.229687,
2012-01-27, 01:51:04,VALID,1006.15,VALID,0,VALID,104,VALID,0,VALID,23.7135,VALID,312,VALID,0.703125,
2012-01-27, 01:52:04,VALID,1006.16,VALID,0,VALID,104,VALID,0,VALID,23.733,VALID,312,VALID,0.264453,
2012-01-27, 01:53:04,VALID,1006.13,VALID,0,VALID,104,VALID,0,VALID,23.7348,VALID,312,VALID,0.533594,
2012-01-27, 01:54:04,VALID,1006.13,VALID,0,VALID,104,VALID,0,VALID,23.7348,VALID,312,VALID,0.308984,
2012-01-27, 01:55:04,VALID,1006.09,VALID,0,VALID,104,VALID,0,VALID,23.7348,VALID,312,VALID,0,
2012-01-27, 01:56:04,VALID,1006.11,VALID,0,VALID,104,VALID,0,VALID,23.7153,VALID,312,VALID,0.417188,
2012-01-27, 01:57:04,VALID,1006.1,VALID,0,VALID,104,VALID,0,VALID,23.7153,VALID,312,VALID,0.0304688,
2012-01-27, 01:58:04,VALID,1006.1,VALID,0,VALID,104,VALID,0,VALID,23.6958,VALID,312,VALID,0.140625,
2012-01-27, 01:59:04,VALID,1006.11,VALID,0,VALID,104,VALID,0,VALID,23.6958,VALID,312,VALID,0.321875,
2012-01-27, 02:00:04,VALID,1006.1,VALID,0,VALID,104,VALID,0,VALID,23.6568,VALID,312,VALID,0.244531,
2012-01-27, 02:01:04,VALID,1006.12,VALID,0,VALID,104,VALID,0,VALID,23.6356,VALID,312,VALID,0.0492188,
2012-01-27, 02:02:04,VALID,1006.1,VALID,0,VALID,104,VALID,0,VALID,23.6161,VALID,312,VALID,0,
2012-01-27, 02:03:04,VALID,1006.11,VALID,0,VALID,104,VALID,0,VALID,23.6161,VALID,312,VALID,0,
2012-01-27, 02:04:04,VALID,1006.13,VALID,0,VALID,104,VALID,0,VALID,23.6179,VALID,312,VALID,0.215625,
2012-01-27, 02:05:04,VALID,1006.11,VALID,0,VALID,104,VALID,0,VALID,23.5984,VALID,312,VALID,0.0417969,
2012-01-27, 02:06:04,VALID,1006.11,VALID,0,VALID,104,VALID,0,VALID,23.5771,VALID,312,VALID,0.14375,
2012-01-27, 02:07:04,VALID,1006.08,VALID,0,VALID,104,VALID,0,VALID,23.5984,VALID,303,VALID,0.648828,
2012-01-27, 02:08:04,VALID,1006.07,VALID,0,VALID,104,VALID,0,VALID,23.5771,VALID,297,VALID,0.230859,
2012-01-27, 02:09:04,VALID,1006.07,VALID,0,VALID,104,VALID,0,VALID,23.5771,VALID,297,VALID,0.586328,
2012-01-27, 02:10:04,VALID,1006.07,VALID,0,VALID,104,VALID,0,VALID,23.5984,VALID,297,VALID,0.00234375,
2012-01-27, 02:11:04,VALID,1006.06,VALID,0,VALID,104,VALID,0,VALID,23.5984,VALID,297,VALID,0,
2012-01-27, 02:12:04,VALID,1006.09,VALID,0,VALID,104,VALID,0,VALID,23.5984,VALID,297,VALID,0,
2012-01-27, 02:13:04,VALID,1006.13,VALID,0,VALID,104,VALID,0,VALID,23.5771,VALID,297,VALID,0.185937,
2012-01-27, 02:14:04,VALID,1006.14,VALID,0,VALID,104,VALID,0,VALID,23.5984,VALID,297,VALID,0.210938,
2012-01-27, 02:15:04,VALID,1006.17,VALID,0,VALID,104,VALID,0,VALID,23.5789,VALID,297,VALID,0,
2012-01-27, 02:16:04,VALID,1006.17,VALID,0,VALID,104,VALID,0,VALID,23.5381,VALID,297,VALID,0,
2012-01-27, 02:17:04,VALID,1006.22,VALID,0,VALID,104,VALID,0,VALID,23.5381,VALID,297,VALID,0,
2012-01-27, 02:18:04,VALID,1006.18,VALID,0,VALID,104,VALID,0,VALID,23.5381,VALID,297,VALID,0.205859,
2012-01-27, 02:19:04,VALID,1006.17,VALID,0,VALID,104,VALID,0,VALID,23.5594,VALID,297,VALID,0.142188,
2012-01-27, 02:20:04,VALID,1006.18,VALID,0,VALID,104,VALID,0,VALID,23.5186,VALID,297,VALID,0.249609,
2012-01-27, 02:21:04,VALID,1006.19,VALID,0,VALID,104,VALID,0,VALID,23.5186,VALID,297,VALID,0.168359,
2012-01-27, 02:22:04,VALID,1006.18,VALID,0,VALID,104,VALID,0.112112,VALID,23.4992,VALID,297,VALID,0.285156,
2012-01-27, 02:23:04,VALID,1006.18,VALID,0,VALID,104,VALID,0,VALID,23.4797,VALID,297,VALID,0.226172,
2012-01-27, 02:24:04,VALID,1006.19,VALID,0,VALID,104,VALID,0,VALID,23.5009,VALID,297,VALID,0.160938,
2012-01-27, 02:25:04,VALID,1006.17,VALID,0,VALID,104,VALID,0,VALID,23.4797,VALID,297,VALID,0.0703125,
2012-01-27, 02:26:04,VALID,1006.16,VALID,0,VALID,104,VALID,0,VALID,23.4815,VALID,297,VALID,0,
2012-01-27, 02:27:04,VALID,1006.15,VALID,0,VALID,104,VALID,0,VALID,23.423,VALID,297,VALID,0,
2012-01-27, 02:28:04,VALID,1006.14,VALID,0,VALID,104,VALID,0,VALID,23.4035,VALID,297,VALID,0,
2012-01-27, 02:29:04,VALID,1006.13,VALID,0,VALID,104,VALID,0,VALID,23.3823,VALID,297,VALID,0,
2012-01-27, 02:30:04,VALID,1006.12,VALID,0,VALID,104,VALID,0,VALID,23.3628,VALID,297,VALID,0,
2012-01-27, 02:31:04,VALID,1006.12,VALID,0,VALID,104,VALID,0.112112,VALID,23.3628,VALID,297,VALID,0,
2012-01-27, 02:32:04,VALID,1006.1,VALID,0,VALID,104,VALID,0,VALID,23.3433,VALID,297,VALID,0,
2012-01-27, 02:33:04,VALID,1006.1,VALID,0,VALID,104,VALID,0,VALID,23.3433,VALID,297,VALID,0.383984,
2012-01-27, 02:34:04,VALID,1006.09,VALID,0,VALID,104,VALID,0,VALID,23.3451,VALID,297,VALID,0.233984,
2012-01-27, 02:35:04,VALID,1006.08,VALID,0,VALID,104,VALID,0,VALID,23.3433,VALID,297,VALID,0.198828,
2012-01-27, 02:36:04,VALID,1006.07,VALID,0,VALID,104,VALID,0,VALID,23.3238,VALID,297,VALID,0.0402344,
2012-01-27, 02:37:04,VALID,1006.07,VALID,0,VALID,104,VALID,0,VALID,23.3043,VALID,297,VALID,0,
2012-01-27, 02:38:04,VALID,1006.06,VALID,0,VALID,104,VALID,0,VALID,23.2848,VALID,297,VALID,0.0785156,
2012-01-27, 02:39:04,VALID,1006.06,VALID,0,VALID,104,VALID,0,VALID,23.2848,VALID,297,VALID,0,
2012-01-27, 02:40:04,VALID,1006.06,VALID,0,VALID,104,VALID,0,VALID,23.2848,VALID,297,VALID,0,
2012-01-27, 02:41:04,VALID,1006.07,VALID,0,VALID,104,VALID,0,VALID,23.2848,VALID,297,VALID,0,
2012-01-27, 02:42:04,VALID,1006.06,VALID,0,VALID,104,VALID,0,VALID,23.2848,VALID,297,VALID,0.392578,
2012-01-27, 02:43:04,VALID,1006.06,VALID,0,VALID,104,VALID,0,VALID,23.3043,VALID,297,VALID,0.458203,
2012-01-27, 02:44:04,VALID,1006.04,VALID,0,VALID,104,VALID,0,VALID,23.3451,VALID,297,VALID,0.383203,
2012-01-27, 02:45:04,VALID,1006.02,VALID,0,VALID,104,VALID,0,VALID,23.3238,VALID,297,VALID,0.0121094,
2012-01-27, 02:46:04,VALID,1006.01,VALID,0,VALID,104,VALID,0,VALID,23.3238,VALID,297,VALID,0,
2012-01-27, 02:47:04,VALID,1006,VALID,0,VALID,104,VALID,0,VALID,23.3238,VALID,297,VALID,0.0277344,
2012-01-27, 02:48:04,VALID,1005.98,VALID,0,VALID,104,VALID,0,VALID,23.3238,VALID,320,VALID,0.466797,
2012-01-27, 02:49:04,VALID,1006,VALID,0,VALID,104,VALID,0,VALID,23.3433,VALID,17,VALID,0.541016,
2012-01-27, 02:50:04,VALID,1006,VALID,0,VALID,104,VALID,0,VALID,23.3628,VALID,34,VALID,0.564453,
2012-01-27, 02:51:04,VALID,1006.02,VALID,0,VALID,104,VALID,0,VALID,23.384,VALID,34,VALID,0.461328,
2012-01-27, 02:52:04,VALID,1006.02,VALID,0,VALID,104,VALID,0,VALID,23.3628,VALID,47,VALID,0.682813,
2012-01-27, 02:53:04,VALID,1006.05,VALID,0,VALID,104,VALID,0,VALID,23.3823,VALID,47,VALID,0.505469,
2012-01-27, 02:54:04,VALID,1006.06,VALID,0,VALID,104,VALID,0,VALID,23.4017,VALID,47,VALID,0.242969,
2012-01-27, 02:55:04,VALID,1006.11,VALID,0,VALID,104,VALID,0,VALID,23.423,VALID,47,VALID,0.10625,
2012-01-27, 02:56:04,VALID,1006.13,VALID,0,VALID,104,VALID,0,VALID,23.423,VALID,47,VALID,0.141016,
2012-01-27, 02:57:04,VALID,1006.12,VALID,0,VALID,104,VALID,0,VALID,23.4017,VALID,47,VALID,0.229297,
2012-01-27, 02:58:04,VALID,1006.12,VALID,0,VALID,104,VALID,0,VALID,23.4017,VALID,47,VALID,0.175781,
2012-01-27, 02:59:04,VALID,1006.15,VALID,0,VALID,104,VALID,0,VALID,23.3823,VALID,47,VALID,0.205859,
2012-01-27, 03:00:04,VALID,1006.15,VALID,0,VALID,104,VALID,0,VALID,23.4017,VALID,47,VALID,0,
2012-01-27, 03:01:04,VALID,1006.16,VALID,0,VALID,104,VALID,0,VALID,23.3823,VALID,47,VALID,0.162109,
2012-01-27, 03:02:04,VALID,1006.15,VALID,0,VALID,104,VALID,0,VALID,23.3823,VALID,47,VALID,0.0105469,
2012-01-27, 03:03:04,VALID,1006.17,VALID,0,VALID,104,VALID,0,VALID,23.4035,VALID,47,VALID,0.147656,
2012-01-27, 03:04:04,VALID,1006.17,VALID,0,VALID,104,VALID,0,VALID,23.3823,VALID,47,VALID,0,
2012-01-27, 03:05:04,VALID,1006.13,VALID,0,VALID,104,VALID,0,VALID,23.3628,VALID,47,VALID,0,
2012-01-27, 03:06:04,VALID,1006.14,VALID,0,VALID,104,VALID,0,VALID,23.384,VALID,47,VALID,0,
2012-01-27, 03:07:04,VALID,1006.14,VALID,0,VALID,104,VALID,0,VALID,23.3628,VALID,47,VALID,0,
2012-01-27, 03:08:04,VALID,1006.12,VALID,0,VALID,104,VALID,0,VALID,23.3628,VALID,47,VALID,0,
2012-01-27, 03:09:04,VALID,1006.11,VALID,0,VALID,104,VALID,0,VALID,23.4035,VALID,47,VALID,0,
2012-01-27, 03:10:04,VALID,1006.13,VALID,0,VALID,104,VALID,0,VALID,23.4035,VALID,47,VALID,0,
2012-01-27, 03:11:04,VALID,1006.12,VALID,0,VALID,104,VALID,0,VALID,23.4035,VALID,47,VALID,0,
2012-01-27, 03:12:04,VALID,1006.12,VALID,0,VALID,104,VALID,0,VALID,23.4017,VALID,47,VALID,0,
2012-01-27, 03:13:04,VALID,1006.14,VALID,0,VALID,104,VALID,0,VALID,23.4017,VALID,47,VALID,0,
2012-01-27, 03:14:04,VALID,1006.13,VALID,0,VALID,104,VALID,0,VALID,23.423,VALID,47,VALID,0,
2012-01-27, 03:15:04,VALID,1006.15,VALID,0,VALID,104,VALID,0,VALID,23.3823,VALID,47,VALID,0,
2012-01-27, 03:16:04,VALID,1006.16,VALID,0,VALID,104,VALID,0,VALID,23.4212,VALID,47,VALID,0,
2012-01-27, 03:17:04,VALID,1006.15,VALID,0,VALID,104,VALID,0,VALID,23.4017,VALID,47,VALID,0,
2012-01-27, 03:18:04,VALID,1006.14,VALID,0,VALID,104,VALID,0,VALID,23.4212,VALID,47,VALID,0,
2012-01-27, 03:19:04,VALID,1006.15,VALID,0,VALID,104,VALID,0,VALID,23.4212,VALID,47,VALID,0,
2012-01-27, 03:20:04,VALID,1006.16,VALID,0,VALID,104,VALID,0,VALID,23.4212,VALID,47,VALID,0,
2012-01-27, 03:21:04,VALID,1006.13,VALID,0,VALID,104,VALID,0,VALID,23.4407,VALID,47,VALID,0,
2012-01-27, 03:22:04,VALID,1006.13,VALID,0,VALID,104,VALID,0,VALID,23.4602,VALID,47,VALID,0,
2012-01-27, 03:23:04,VALID,1006.12,VALID,0,VALID,104,VALID,0,VALID,23.5009,VALID,47,VALID,0.373437,
2012-01-27, 03:24:04,VALID,1006.14,VALID,0,VALID,104,VALID,0,VALID,23.5186,VALID,47,VALID,0.349609,
2012-01-27, 03:25:04,VALID,1006.13,VALID,0,VALID,104,VALID,0,VALID,23.5789,VALID,47,VALID,0.394141,
2012-01-27, 03:26:04,VALID,1006.15,VALID,0,VALID,104,VALID,0,VALID,23.5771,VALID,47,VALID,0.296875,
2012-01-27, 03:27:04,VALID,1006.18,VALID,0,VALID,104,VALID,0,VALID,23.5966,VALID,47,VALID,0,
2012-01-27, 03:28:04,VALID,1006.15,VALID,0,VALID,104,VALID,0,VALID,23.6179,VALID,47,VALID,0,
2012-01-27, 03:29:04,VALID,1006.13,VALID,0,VALID,104,VALID,0,VALID,23.6161,VALID,47,VALID,0.132422,
2012-01-27, 03:30:04,VALID,1006.14,VALID,0,VALID,104,VALID,0,VALID,23.6161,VALID,178,VALID,0.78125,
2012-01-27, 03:31:04,VALID,1006.13,VALID,0,VALID,104,VALID,0,VALID,23.6568,VALID,178,VALID,0.495313,
2012-01-27, 03:32:04,VALID,1006.14,VALID,0,VALID,104,VALID,0,VALID,23.655,VALID,178,VALID,0.29375,
2012-01-27, 03:33:04,VALID,1006.16,VALID,0,VALID,104,VALID,0,VALID,23.655,VALID,178,VALID,0.425,
2012-01-27, 03:34:04,VALID,1006.16,VALID,0,VALID,104,VALID,0,VALID,23.655,VALID,178,VALID,0.320313,
2012-01-27, 03:35:04,VALID,1006.2,VALID,0,VALID,104,VALID,0,VALID,23.6958,VALID,178,VALID,0.349609,
2012-01-27, 03:36:04,VALID,1006.18,VALID,0,VALID,104,VALID,0,VALID,23.6763,VALID,178,VALID,0.354297,
2012-01-27, 03:37:04,VALID,1006.23,VALID,0,VALID,104,VALID,0,VALID,23.655,VALID,178,VALID,0.383984,
2012-01-27, 03:38:04,VALID,1006.21,VALID,0,VALID,104,VALID,0,VALID,23.655,VALID,178,VALID,0.286719,
2012-01-27, 03:39:04,VALID,1006.21,VALID,0,VALID,104,VALID,0,VALID,23.6745,VALID,178,VALID,0.308203,
2012-01-27, 03:40:04,VALID,1006.2,VALID,0,VALID,104,VALID,0,VALID,23.655,VALID,178,VALID,0,
2012-01-27, 03:41:04,VALID,1006.22,VALID,0,VALID,104,VALID,0,VALID,23.6745,VALID,178,VALID,0,
2012-01-27, 03:42:04,VALID,1006.25,VALID,0,VALID,104,VALID,0,VALID,23.6727,VALID,178,VALID,0,
2012-01-27, 03:43:04,VALID,1006.27,VALID,0,VALID,104,VALID,0,VALID,23.6958,VALID,178,VALID,0,
2012-01-27, 03:44:04,VALID,1006.3,VALID,0,VALID,104,VALID,0,VALID,23.6958,VALID,178,VALID,0,
2012-01-27, 03:45:04,VALID,1006.33,VALID,0,VALID,104,VALID,0,VALID,23.6958,VALID,178,VALID,0,
2012-01-27, 03:46:04,VALID,1006.35,VALID,0,VALID,104,VALID,0,VALID,23.6958,VALID,178,VALID,0,
2012-01-27, 03:47:04,VALID,1006.36,VALID,0,VALID,104,VALID,0,VALID,23.694,VALID,178,VALID,0,
2012-01-27, 03:48:04,VALID,1006.37,VALID,0,VALID,104,VALID,0,VALID,23.7135,VALID,178,VALID,0,
2012-01-27, 03:49:04,VALID,1006.39,VALID,0,VALID,104,VALID,0,VALID,23.7153,VALID,178,VALID,0,
2012-01-27, 03:50:04,VALID,1006.39,VALID,0,VALID,104,VALID,0,VALID,23.694,VALID,178,VALID,0,
2012-01-27, 03:51:04,VALID,1006.4,VALID,0,VALID,104,VALID,0,VALID,23.694,VALID,178,VALID,0,
2012-01-27, 03:52:04,VALID,1006.4,VALID,0,VALID,104,VALID,0,VALID,23.7153,VALID,178,VALID,0,
2012-01-27, 03:53:04,VALID,1006.41,VALID,0,VALID,104,VALID,0.112112,VALID,23.7135,VALID,178,VALID,0,
2012-01-27, 03:54:04,VALID,1006.44,VALID,0,VALID,104,VALID,0.112112,VALID,23.694,VALID,178,VALID,0.0789063,
2012-01-27, 03:55:04,VALID,1006.42,VALID,0,VALID,104,VALID,0,VALID,23.6727,VALID,178,VALID,0,
2012-01-27, 03:56:04,VALID,1006.42,VALID,0,VALID,104,VALID,0,VALID,23.6745,VALID,178,VALID,0.06875,
2012-01-27, 03:57:04,VALID,1006.43,VALID,0,VALID,104,VALID,0.112112,VALID,23.6532,VALID,178,VALID,0,